Regional Weather Roundup
Issued by NWS Boston, MA

Current Version | Previous Version | Text Only | Print | Product List | Glossary On
Versions: 1 2 3 4 5 6 7 8 9 10 11 12 13 14 15 16 17 18 19 20 21 22 23 24 25 26 27 28 29 30 31 32 33 34 35 36 37 38 39 40 41 42 43 44 45 46 47 48 49 50
000
ASUS41 KBOX 270310
RWRBOX

REGIONAL WEATHER ROUNDUP
NATIONAL WEATHER SERVICE TAUNTON MA
1100 PM EDT MON JUN 26 2017

NOTE:  "FAIR" INDICATES FEW OR NO CLOUDS BELOW 12,000 FEET WITH NO
SIGNIFICANT WEATHER AND/OR OBSTRUCTIONS TO VISIBILITY.

MAZALL-270400-
EASTERN MASSACHUSETTS

CITY           SKY/WX    TMP DP  RH WIND       PRES   REMARKS
BOSTON         MOCLDY    69  52  54 NW10      29.99R
BEVERLY        MOCLDY    64  54  69 SW5       29.99R
LAWRENCE       PTCLDY    66  56  70 NW7       30.02R
BEDFORD        MOCLDY    63  51  65 W5        29.99R
BLUE HILL        N/A     64  51  62 NW9       30.00R
NORWOOD        MOCLDY    68  54  60 NW6       29.99R
MARSHFIELD     CLEAR     66  55  68 SW5       29.98S
PLYMOUTH       PTCLDY    64  53  67 VRB5      30.00S
TAUNTON        CLEAR     64  54  69 S5        29.99S
NEW BEDFORD    CLEAR     63  58  83 SW7       29.99S
$$

MAZALL-270400-
CAPE COD AND THE ISLANDS

CITY           SKY/WX    TMP DP  RH WIND       PRES   REMARKS
FALMOUTH       CLEAR     63  57  82 SW8       30.02R
HYANNIS        CLEAR     65  59  81 SW8       30.00R
CHATHAM        CLEAR     65  62  90 SW5       30.02S
PROVINCETOWN   PTCLDY    64  60  87 S10       30.00R
NANTUCKET        N/A     62  62 100 SW8       30.02S
MARTHAS VNYRD  CLEAR     63  59  87 SW5       30.01S
$$

MAZALL-270400-
CENTRAL AND WESTERN MASSACHUSETTS

CITY           SKY/WX    TMP DP  RH WIND       PRES   REMARKS
WORCESTER      CLEAR     61  51  70 CALM      30.01F
FITCHBURG      CLOUDY    61  56  83 N3        30.01F
ORANGE         PTCLDY    57  57 100 CALM      30.00F
SPRINGFIELD    PTCLDY    59  53  81 CALM      29.99R
WESTFIELD      MOCLDY    62  56  80 N3          N/A
NORTH ADAMS    RAIN      57  54  89 VRB5      30.04R FOG
PITTSFIELD     PTCLDY    55  52  89 CALM      30.01R
$$

RIZALL-270400-
RHODE ISLAND

CITY           SKY/WX    TMP DP  RH WIND       PRES   REMARKS
PROVIDENCE     CLEAR     64  56  75 S6        30.00R
NEWPORT        CLEAR     65  60  84 VRB5      30.00S
BLOCK ISLAND   CLEAR     65  60  84 SW10      30.02R
WESTERLY       CLEAR     65  59  81 CALM      30.01S
$$

CTZALL-270400-
CONNECTICUT

CITY           SKY/WX    TMP DP  RH WIND       PRES   REMARKS
BRADLEY INTL   PTCLDY    65  53  65 N8        30.00R
HARTFORD       CLEAR     67  52  58 S6        29.98R
BRIDGEPORT     CLEAR     69  61  75 W5        29.99R
DANBURY        CLEAR     64  56  75 CALM      30.00R
GROTON         CLEAR     65  58  78 CALM      30.00R
NEW HAVEN      CLEAR     68  59  73 SW3       30.00R
CHESTER        FAIR      64  57  77 CALM      30.01R
MERIDEN        CLEAR     61  53  75 S3        29.99R
WILLIMANTIC    CLEAR     67  55  65 S5        30.00R
OXFORD         CLEAR     63  50  63 CALM      30.01S
$$

MEZ002-015-021-024-NHZ003-005-008-011-012-014-VTZ005-008-270400-
NORTHERN NEW ENGLAND

CITY           SKY/WX    TMP DP  RH WIND       PRES   REMARKS
PORTLAND ME    CLOUDY    62  53  72 SW7       29.97R
BANGOR ME      CLEAR     61  53  75 S6        29.96R
CONCORD NH     CLOUDY    59  57  93 SE5       29.99S
MANCHESTER NH  LGT RAIN  63  53  70 VRB5      29.99S
NASHUA NH      LGT RAIN  60  58  92 CALM      30.00S
PORTSMOUTH NH  MOCLDY    65  52  62 NW5       29.96S
JAFFREY NH     MOCLDY    57  57 100 CALM      30.00F
KEENE NH       CLOUDY    58  57  97 CALM      29.99F
BURLINGTON VT  PTCLDY    61  54  77 S8        29.95S
MT. WASHINGTON PTCLDY    39  36  87 W22         N/A  WCI  29
$$

NYZ052-076-270400-
EASTERN NEW YORK

CITY           SKY/WX    TMP DP  RH WIND       PRES   REMARKS
ALBANY         LGT RAIN  60  57  89 W10       30.03R
NEW YORK CITY  CLEAR     72  59  63 S8        29.98R
$$

ANZALL-270400-
MARINE OBSERVATIONS

STATION/POSITION TIME  TEMP    WIND        PRES    VSBY  WAVE
                       AIR SEA DIR/SP/G                  HT/PER
                 (UTC) (F)     (DEG/KT/KT) (MB)    (MI)  (FT/S)
BOSTON BUOY      0250   66 59  240/  6/  8 1015.0R         1/ 8
BUZZARDS BAY     0200   65     230/ 14/ 15 1016.2R
NANTUCKET SOUND  0250      67              1015.9R         1/ 2
MASS BAY-STELLWA 0204   64 60  320/  2/  4 1014.2R         1/ 6
ISLE OF SHOALS   0200   69     190/  8/  9 1014.6R
S OF BLOCK IS    0255      64                N/A           3/ 7
$$

......................KEY.........................
  SKY/WX - SKY CONDITION/PRESENT WEATHER
  TMP    - TEMPERATURE IN FAHRENHEIT
  DWPT   - DEWPOINT IN FAHRENHEIT
  RH     - RELATIVE HUMIDITY IN PERCENT
  WIND   - DIRECTION AND SPEED IN MPH
  PRES   - MEAN SEA LEVEL PRESSURE IN INCHES OF HG
  WCI    - WIND CHILL INDEX
  VSB    - VISIBILITY IN MILES
  HX     - HEAT INDEX
  TC     - TEMPERATURE IN CELSIUS
  VRB    - VARIABLE WIND DIRECTION
  N/A    - NOT AVAILABLE



USA.gov is the U.S. government's official web portal to all federal, state and local government web resources and services.